Location: Kershaw
(34.5481°N, 80.5823°W)
Time: 15:50:02
(UTC+00:00)

Transit 4A - Pass Details

Date: 04 October 2022
Orbit: 871 x 972 km, 66.8° (Epoch: 29 November)

Event Time Altitude Azimuth Distance (km) Brightness Sun altitude
Rises 03:32:58 0° 228° (SW) 3,615 - -52.2°
Reaches altitude 10° 03:35:44 10° 237° (WSW) 2,659 - -52.5°
Maximum altitude 03:41:24 37° 303° (WNW) 1,412 - -53.3°
Drops below altitude 10° 03:46:58 10° 10° (N) 2,605 - -54.0°
Sets 03:49:40 0° 18° (NNE) 3,533 - -54.4°
